Weather History for Bar Harbor, ME

Change the Weather History Date:

Friday, March 28, 2014

  Actual Average Record
Temperature  
Mean Temperature 38 °F -  
Max Temperature 42 °F 42 °F 61 °F (1949)
Min Temperature 33 °F 24 °F 8 °F (1982)
Degree Days  
Heating Degree Days 28    
Moisture  
Dew Point 35 °F    
Average Humidity 88    
Maximum Humidity 100    
Minimum Humidity 60    
Precipitation  
Precipitation 0.10 in - - ()
Sea Level Pressure  
Sea Level Pressure 30.06 in    
Wind  
Wind Speed 8 mph (SSW)    
Max Wind Speed 20 mph    
Max Gust Speed 25 mph    
Visibility 8 miles    
Events      
Averages and records for this station are not official NWS values.
T = Trace of Precipitation, MM = Missing Value Source: NWS Daily Summary

Daily Weather History Graph

Daily Weather History Graph

Search for Another Location

Airport:

Trip Planner

Search our weather history database for the weather conditions in past years. The results will help you decide how hot, cold, wet, or windy it might be!

Date:

Astronomy

Mar. 28, 2014 Rise Set
Actual Time 6:21 AM EDT 6:55 PM EDT
Civil Twilight 5:52 AM EDT 7:25 PM EDT
Nautical Twilight 5:18 AM EDT 7:59 PM EDT
Astronomical Twilight 4:42 AM EDT 8:35 PM EDT
Moon 4:55 AM EDT (3/28) 4:44 PM EDT (3/28)
Length of Visible Light 13h 32m
Length of Day
12h 33m
Waning Crescent, 6% of the Moon is Illuminated
Mar 28
Waning Crescent
Mar 30
New
Apr 7
First Quarter
Apr 15
Full
Apr 22
Last Quarter

Hourly Weather History & Observations

Time (EDT) Temp. Windchill Dew Point Humidity Pressure Visibility Wind Dir Wind Speed Gust Speed Precip Events Conditions
12:15 AM 33.8 °F 28.6 °F 21.2 °F 60% 30.22 in 10.0 mi SSW 5.8 mph - N/A   Overcast
12:35 AM 33.8 °F 29.6 °F 21.2 °F 60% 30.23 in 10.0 mi SSW 4.6 mph - N/A   Overcast
12:55 AM 33.8 °F 30.8 °F 24.8 °F 70% 30.23 in 10.0 mi SW 3.5 mph - N/A   Overcast
1:15 AM 33.8 °F - 24.8 °F 70% 30.22 in 10.0 mi Calm Calm - N/A   Overcast
1:35 AM 33.8 °F 30.8 °F 24.8 °F 70% 30.22 in 10.0 mi South 3.5 mph - N/A   Overcast
1:55 AM 33.8 °F 27.0 °F 26.6 °F 75% 30.22 in 10.0 mi SSW 8.1 mph - N/A   Overcast
2:15 AM 35.6 °F 29.2 °F 28.4 °F 75% 30.20 in 10.0 mi South 8.1 mph - N/A   Overcast
2:35 AM 33.8 °F - 28.4 °F 81% 30.20 in 10.0 mi Calm Calm - N/A   Overcast
2:55 AM 33.8 °F 29.6 °F 30.2 °F 87% 30.20 in 10.0 mi South 4.6 mph - N/A   Overcast
3:15 AM 33.8 °F 30.8 °F 28.4 °F 81% 30.20 in 10.0 mi South 3.5 mph - N/A   Overcast
3:35 AM 33.8 °F 29.6 °F 30.2 °F 87% 30.19 in 10.0 mi SSE 4.6 mph - N/A   Overcast
3:55 AM 35.6 °F 32.8 °F 28.4 °F 75% 30.18 in 10.0 mi SE 3.5 mph - N/A   Overcast
4:15 AM 35.6 °F - 28.4 °F 75% 30.20 in 10.0 mi Calm Calm - N/A   Overcast
4:35 AM 33.8 °F - 30.2 °F 87% 30.19 in 10.0 mi Calm Calm - N/A   Overcast
4:55 AM 35.6 °F 28.6 °F 30.2 °F 81% 30.18 in 10.0 mi South 9.2 mph - N/A   Overcast
5:15 AM 35.6 °F 28.6 °F 32.0 °F 87% 30.17 in 10.0 mi South 9.2 mph - N/A   Overcast
5:35 AM 35.6 °F 28.0 °F 30.2 °F 81% 30.16 in 10.0 mi South 10.4 mph - N/A   Overcast
5:55 AM 35.6 °F 28.0 °F 30.2 °F 81% 30.16 in 10.0 mi South 10.4 mph - N/A   Overcast
6:15 AM 35.6 °F 28.6 °F 30.2 °F 81% 30.16 in 10.0 mi South 9.2 mph - N/A   Overcast
6:35 AM 35.6 °F 28.0 °F 30.2 °F 81% 30.16 in 10.0 mi South 10.4 mph - N/A   Overcast
6:55 AM 35.6 °F 27.1 °F 30.2 °F 81% 30.15 in 10.0 mi South 12.7 mph - N/A   Overcast
7:15 AM 35.6 °F 25.9 °F 30.2 °F 81% 30.15 in 9.0 mi South 16.1 mph - N/A   Overcast
7:35 AM 35.6 °F 26.6 °F 30.2 °F 81% 30.15 in 4.0 mi SSW 13.8 mph 18.4 mph N/A   Overcast
7:55 AM 33.8 °F 24.3 °F 32.0 °F 93% 30.15 in 1.5 mi SSW 13.8 mph 19.6 mph N/A   Overcast
8:15 AM 33.8 °F 25.3 °F 33.8 °F 100% 30.15 in 9.0 mi SSW 11.5 mph - N/A   Overcast
8:35 AM 33.8 °F 23.9 °F 33.8 °F 100% 30.14 in 10.0 mi SSW 15.0 mph - N/A   Overcast
8:55 AM 35.6 °F 27.1 °F 33.8 °F 93% 30.14 in 10.0 mi SSW 12.7 mph - N/A   Overcast
9:15 AM 35.6 °F 27.1 °F 33.8 °F 93% 30.13 in 9.0 mi SSW 12.7 mph 18.4 mph N/A   Overcast
9:35 AM 35.6 °F 29.2 °F 33.8 °F 93% 30.12 in 10.0 mi SSW 8.1 mph - N/A   Overcast
9:55 AM 35.6 °F 28.6 °F 33.8 °F 93% 30.12 in 10.0 mi SSW 9.2 mph - N/A   Overcast
10:15 AM 35.6 °F 29.2 °F 33.8 °F 93% 30.11 in 10.0 mi South 8.1 mph - N/A   Overcast
10:35 AM 37.4 °F 30.3 °F 33.8 °F 87% 30.10 in 10.0 mi SSW 10.4 mph - N/A   Overcast
10:55 AM 37.4 °F 30.3 °F 33.8 °F 87% 30.09 in 10.0 mi SSW 10.4 mph - N/A   Overcast
11:15 AM 39.2 °F 30.8 °F 35.6 °F 87% 30.07 in 10.0 mi South 15.0 mph 20.7 mph N/A   Overcast
11:35 AM 39.2 °F 31.2 °F 35.6 °F 87% 30.07 in 10.0 mi SSW 13.8 mph 19.6 mph N/A   Overcast
11:55 AM 39.2 °F 30.5 °F 35.6 °F 87% 30.06 in 10.0 mi SSW 16.1 mph 19.6 mph N/A   Overcast
12:15 PM 42.8 °F 34.5 °F 35.6 °F 76% 30.05 in 10.0 mi SSW 18.4 mph 23.0 mph N/A   Overcast
12:35 PM 42.8 °F 34.3 °F 37.4 °F 81% 30.03 in 10.0 mi SSW 19.6 mph 25.3 mph N/A   Mostly Cloudy
12:55 PM 42.8 °F 34.8 °F 37.4 °F 81% 30.02 in 10.0 mi SSW 17.3 mph 24.2 mph N/A   Overcast
1:15 PM 42.8 °F 34.8 °F 37.4 °F 81% 30.02 in 10.0 mi SSW 17.3 mph 23.0 mph N/A   Overcast
1:35 PM 42.8 °F 34.8 °F 39.2 °F 87% 30.00 in 10.0 mi SSW 17.3 mph 20.7 mph N/A   Overcast
1:55 PM 42.8 °F 34.8 °F 39.2 °F 87% 29.99 in 10.0 mi SSW 17.3 mph - N/A   Overcast
2:15 PM 42.8 °F 35.8 °F 39.2 °F 87% 29.99 in 10.0 mi SSW 13.8 mph 21.9 mph N/A   Overcast
2:35 PM 42.8 °F 35.8 °F 39.2 °F 87% 29.97 in 10.0 mi South 13.8 mph 19.6 mph N/A   Overcast
2:55 PM 42.8 °F 36.6 °F 39.2 °F 87% 29.97 in 10.0 mi SSW 11.5 mph - N/A   Overcast
3:15 PM 42.8 °F 37.0 °F 39.2 °F 87% 29.95 in 9.0 mi SSW 10.4 mph - N/A   Overcast
3:35 PM 41.0 °F 34.3 °F 39.2 °F 93% 29.95 in 8.0 mi SSW 11.5 mph - N/A   Overcast
3:55 PM 41.0 °F 33.9 °F 39.2 °F 93% 29.94 in 7.0 mi SSW 12.7 mph - N/A   Overcast
4:15 PM 41.0 °F 34.3 °F 39.2 °F 93% 29.93 in 5.0 mi SSW 11.5 mph - N/A   Overcast
4:35 PM 39.2 °F 32.5 °F 37.4 °F 93% 29.93 in 5.0 mi South 10.4 mph - 0.01 in   Overcast
4:55 PM 39.2 °F 32.0 °F 39.2 °F 100% 29.93 in 5.0 mi SSW 11.5 mph - 0.02 in   Overcast
5:15 PM 39.2 °F 32.5 °F 37.4 °F 93% 29.92 in 5.0 mi SSW 10.4 mph - N/A   Overcast
5:35 PM 39.2 °F 32.0 °F 39.2 °F 100% 29.93 in 5.0 mi SSW 11.5 mph - N/A   Overcast
5:55 PM 39.2 °F 33.0 °F 39.2 °F 100% 29.92 in 5.0 mi SSW 9.2 mph - N/A   Overcast
6:15 PM 39.2 °F 32.5 °F 39.2 °F 100% 29.93 in 5.0 mi SSW 10.4 mph - N/A   Overcast
6:35 PM 39.2 °F 33.0 °F 39.2 °F 100% 29.93 in 4.0 mi SSW 9.2 mph - 0.02 in   Overcast
6:55 PM 39.2 °F 33.0 °F 39.2 °F 100% 29.93 in 3.0 mi SSW 9.2 mph - 0.05 in   Overcast
7:15 PM 39.2 °F 33.0 °F 39.2 °F 100% 29.93 in 3.0 mi SSW 9.2 mph - 0.02 in   Overcast
7:35 PM 39.2 °F 32.5 °F 39.2 °F 100% 29.93 in 5.0 mi SSW 10.4 mph - 0.03 in   Overcast
7:55 PM 39.2 °F 33.0 °F 37.4 °F 93% 29.94 in 5.0 mi SSW 9.2 mph - 0.03 in   Overcast
8:15 PM 39.2 °F 33.0 °F 39.2 °F 100% 29.94 in 5.0 mi SSW 9.2 mph - N/A   Overcast
8:35 PM 39.2 °F 32.0 °F 39.2 °F 100% 29.93 in 5.0 mi SSW 11.5 mph - N/A   Overcast
8:55 PM 39.2 °F 32.0 °F 39.2 °F 100% 29.95 in 4.0 mi SSW 11.5 mph - N/A   Overcast
9:15 PM 39.2 °F 33.6 °F 39.2 °F 100% 29.95 in 5.0 mi SSW 8.1 mph - N/A   Overcast
9:35 PM 39.2 °F 32.5 °F 37.4 °F 93% 29.94 in 2.0 mi SSW 10.4 mph - N/A   Overcast
9:55 PM 39.2 °F 32.5 °F 39.2 °F 100% 29.93 in 0.5 mi SSW 10.4 mph - N/A   Overcast
10:15 PM 39.2 °F 31.6 °F 39.2 °F 100% 29.94 in 0.5 mi SSW 12.7 mph - N/A   Overcast
10:35 PM 41.0 °F 35.8 °F 41.0 °F 100% 29.94 in 0.5 mi SSW 8.1 mph - N/A   Overcast
10:55 PM 39.2 °F 34.2 °F 39.2 °F 100% 29.95 in 0.5 mi SSW 6.9 mph - N/A   Overcast
11:15 PM 41.0 °F 36.4 °F 41.0 °F 100% 29.95 in 1.8 mi SW 6.9 mph - N/A   Overcast
11:35 PM 42.8 °F 38.0 °F 41.0 °F 93% 29.94 in 2.5 mi SSW 8.1 mph - N/A   Overcast
11:55 PM 41.0 °F 34.7 °F 41.0 °F 100% 29.94 in 2.0 mi SSW 10.4 mph - N/A   Overcast